This is the latest recevied weather packets stored in our database for station/object DN9EL-10. If no packets are shown the sender has not sent any weather packets the latest 10 day(s).
| Time | Temp. | Humidity | Pressure | Rain* | Wind** | Luminosity | Snow |
|---|---|---|---|---|---|---|---|
| 1777685607 | 6.67° C | 51% | 970.1 hPa | - | - | - | - |
| 1777684707 | 7.22° C | 50% | 970.2 hPa | - | - | - | - |
| 1777683807 | 7.22° C | 50% | 970.3 hPa | - | - | - | - |
| 1777682907 | 7.78° C | 50% | 970.5 hPa | - | - | - | - |
| 1777682007 | 7.78° C | 50% | 970.5 hPa | - | - | - | - |
| 1777681107 | 8.33° C | 49% | 970.4 hPa | - | - | - | - |
| 1777680207 | 8.33° C | 49% | 970.6 hPa | - | - | - | - |
| 1777679307 | 8.89° C | 48% | 970.7 hPa | - | - | - | - |
| 1777678406 | 8.89° C | 48% | 970.7 hPa | - | - | - | - |
| 1777677506 | 9.44° C | 48% | 970.7 hPa | - | - | - | - |
| 1777676606 | 9.44° C | 48% | 970.9 hPa | - | - | - | - |
| 1777675706 | 10° C | 47% | 970.9 hPa | - | - | - | - |
| 1777674806 | 10° C | 47% | 971 hPa | - | - | - | - |
| 1777673907 | 10.56° C | 46% | 971.1 hPa | - | - | - | - |
| 1777673006 | 11.11° C | 46% | 971.2 hPa | - | - | - | - |
| 1777672106 | 11.67° C | 45% | 971.1 hPa | - | - | - | - |
| 1777671206 | 11.67° C | 45% | 971.1 hPa | - | - | - | - |
| 1777670306 | 12.22° C | 44% | 971.1 hPa | - | - | - | - |
| 1777669405 | 12.78° C | 44% | 971.3 hPa | - | - | - | - |
| 1777668505 | 13.33° C | 43% | 971.3 hPa | - | - | - | - |
| 1777667605 | 13.89° C | 42% | 971.3 hPa | - | - | - | - |
| 1777666705 | 14.44° C | 42% | 971.4 hPa | - | - | - | - |
| 1777665805 | 15° C | 41% | 971.4 hPa | - | - | - | - |
| 1777664905 | 15.56° C | 40% | 971.4 hPa | - | - | - | - |
| 1777664005 | 16.67° C | 39% | 971.4 hPa | - | - | - | - |
* Rain since midnight (hover to see other rain measurements)
** Current wind speed in m/s (hover to see current wind gust speed)